Showing default

YAOGAN-30 Q, 44451

Orbit data source: Space-Track

YAOGAN-30 Q, 44451 is a payload satellite owned by PLA SSF (CN) in LEO that was launched on Fri, 26 Jul 2019 UTC via a CHANG ZHENG 2C launch vehicle from the Xichang Space Center, China (XSC). Payload-class satellites include a variety of spacecraft equipped with specific instruments for various scientific and technological missions. These include communications satellites like Starlink; space stations such as the ISS; scientific satellites like the Hubble; Earth observation satellites from companies like Planet Labs, Umbra, and HawkEye 360; GPS; miniature CubeSats for education and research; and military/defense satellites.

Loading next visibility...
Identifier
44451, 2019-045C
Orbit
LEO
Country
Flag of CNCN / PRC
Related business
Manufacturer
SECM
Mission
Operational Defense Sigint
Bus & Motor
Unknown
Mass
~500 kg wet, ~500 kg dry
Launch date (UTC)
2019-07-26 (7 years ago)
Launch vehicle
CHANG ZHENG 2C
Launch site
Xichang Space Center, China (XSC)
Object type
Payload
Rocket body
Debris
Shape & HBR
Box + 2 Pan, 0.5 m
Radar Cross Section
0.446 m², Large (>1 m²)

Expand to show TLE details & history
Last TLE update: 22 hours ago

TLE from 22 hours ago
0 YAOGAN-30 Q
1 44451U 19045C   26172.51312083  .00002060  00000-0  15340-3 0  9992
2 44451  34.9942 303.1444 0000674 309.8156  50.2492 15.02702053377205
Epoch: 2026-06-21T12:18Z
TLE epoch observation values (Epoch: 2026-06-21T12:18:53.639Z)
Latitude
-0.00007°
Longitude
-151.29151°
Altitude
557.186 km
Speed
7.585 km/s
True Right ascension
20h 12m 34s
True Declination
0° 00' 00"
Sunlit
Object was in full shadow at epoch
Visualization orbit readout
Latitude
Unknown
Longitude
Unknown
Altitude
Unknown
Speed
Unknown
Apparent Right ascension
Unknown
Apparent Declination
Unknown
Sunlit
N/A
Visualization observer readout
Local Sidereal Time
21:24:36
Azimuth
Unknown
Elevation
Unknown
Doppler factor
Unknown
Orbital elements
Apogee altitude
562.258 km
Perigee altitude
561.323 km
Semi-major axis
6,939.928 km
Eccentricity
0.00007
Inclination
34.9942°
RAAN
303.1444°
Arg. of periapsis
309.8156°
True anomaly
50.25514°
Mean anomaly
50.2492°
Eccentric anomaly
50.25217°
Mean motion
3.75414 °/min
Orbital period
95.89 mins
BSTAR
0.0001534
Loading maneuver chart data...
Computing Atmospheric mass density...
Loading historical data...
Loading historical data...
Loading historical data...
Loading historical data...
Loading historical data...
Loading historical data...
Loading historical data...
Other satellites on launch #45 in the year 2019 (2019-07-26 UTC)

Documentation

Showing up to 5 results
|